Tracking 25612 objects as of 19-May-2022
HD Live streaming from Space Station
objects crossing your sky now

COSMOS 2251 DEB

Track COSMOS 2251 DEB now!
10-day predictions


NORAD ID: 36071
Int'l Code: 1993-036AYJ
Perigee: 706.7 km
Apogee: 746.9 km
Inclination: 74.0 °
Period: 99.2 minutes
Semi major axis: 7097 km
RCS: 0.009 m2 (small)
Launch date: June 16, 1993
Source: Commonwealth of Independent States (former USSR) (CIS)
Launch site: PLESETSK MISSILE AND SPACE COMPLEX (PKMTR)

Note: This is SATELLITE DEBRIS
aabbcc
Your satellite tracking list
Your tracking list is empty




NASA's NSSDC Master Catalog

Two Line Element Set (TLE):
1 36071U 93036AYJ 22138.07448067  .00008851  00000-0  21912-2 0  9999
2 36071  74.0357  41.2832 0028339  65.8923 294.5197 14.51836120457771
Source of the keplerian elements: AFSPC